Погода в Станционном-Полевском

Россия / Свердловская область     56°26′27″N   60°18′57″E
темп.,
°C
ветер,
м/с
пор.,
м/с
влажн.,
%
обл.,
%
осадки,
мм/ч
давл.,
гПа
погр.,
м
10 апреля, сб
сб1023:00+2ююв24100100 0.0 102992
02:00+3ю16100100 0.0 1029147
05:00+2ююв2699100 0.0 1030160
08:00+3ююв38100100 0.0 1031201
11:00+8ююв378664 0.0 1031284
14:00+14ю347577 0.0 1030603
17:00+12юв359189 0.0 1032276
20:00+5юв2610095 0.0 1033125
11 апреля, вс
вс1123:00+4ююв3998100 0.0 1034225
02:00+3ю31096100 0.0 1033196
05:00+2ю2897100 0.0 1034154
08:00+4ю2691100 0.0 1033135
11:00+11ююз3673100 0.0 1032265
14:00+15юз485794 0.0 1031669
17:00+14юз396297 0.0 1031666
20:00+9зюз2882100 0.0 1032162
12 апреля, пн
пн1223:00+8з31184100 0.0 1033292
02:00+7з2888100 0.0 1033217
05:00+6з2691100 0.0 1035172
08:00+6з2596100 0.2 1035224
11:00+7сз1397100 1.4 1036266
14:00+8ссз1289100 0.2 1037307
17:00+8зюз1188100 0.2 103770
20:00+6всв1185100 0.0 103710
13 апреля, вт
вт1323:00+4всв1186100 0.0 103810
02:00+3в1191100 0.0 103910
05:00+3ююв1192100 0.0 103912
08:00+5юв148691 0.0 1038122
11:00+11ююв2375100 0.0 1036623
14:00+14ю2367100 0.0 10341087
17:00+12ююв1179100 0.0 103327
20:00+10ююз118796 0.0 103312
14 апреля, ср
ср1423:00+8зюз119296 0.0 103210
02:00+7зюз229233 0.0 103127
05:00+7зюз269335 0.0 1031112
08:00+9зюз398158 0.0 1030291
11:00+14з465386 0.0 1029712
14:00+16з463751 0.0 10271184
17:00+15з463545 0.0 10261249
20:00+10з226117 0.0 102636